1494392400.12,27082,14.0,72582.3,-8.41,-9.05,-9.23,0,*56
1494392401.32,27083,14.0,72584.5,-8.41,-9.05,-9.23,0,*57
1494392402.51,27084,14.0,72580.0,-8.41,-8.97,-9.23,0,*5A
1494392403.74,27085,14.0,72580.3,-8.39,-9.05,-9.23,0,*5E
1494392404.93,27086,14.0,72582.3,-8.41,-8.97,-9.23,0,*58
1494392406.15,27087,14.0,72580.3,-8.39,-8.97,-9.19,0,*5F
1494392407.35,27088,14.0,72580.8,-8.41,-8.97,-9.23,0,*56
1494392408.55,27089,14.0,72580.0,-8.41,-9.05,-9.19,0,*54
1494392409.77,27090,14.0,72580.8,-8.39,-9.05,-9.19,0,*53
1494392410.99,27091,14.0,72580.3,-8.39,-9.05,-9.23,0,*5B
1494392412.22,27092,14.0,72582.0,-8.39,-9.05,-9.19,0,*51
1494392413.44,27093,14.0,72582.8,-8.39,-9.05,-9.19,0,*50
1494392414.66,27094,14.0,72584.5,-8.39,-8.97,-9.19,0,*5D
1494392415.88,27095,14.0,72586.8,-8.39,-8.97,-9.19,0,*5C
1494392417.08,27096,14.0,72584.8,-8.37,-8.93,-9.19,0,*55
1494392418.31,27097,14.0,72582.3,-8.37,-8.93,-9.15,0,*58
1494392419.53,27098,14.0,72584.5,-8.37,-8.93,-9.15,0,*57
1494392420.76,27099,14.0,72582.8,-8.37,-8.89,-9.15,0,*5D
1494392422.02,27100,14.0,72582.8,-8.35,-8.93,-9.15,0,*55
1494392423.27,27101,14.0,72582.5,-8.35,-9.01,-9.15,0,*5E
1494392424.5,27102,14.0,72582.5,-8.37,-8.93,-9.15,0,*55
1494392425.7,27103,14.0,72580.5,-8.37,-8.93,-9.19,0,*58
1494392426.93,27104,14.0,72580.3,-8.37,-9.01,-9.15,0,*59
1494392428.16,27105,14.0,72582.8,-8.35,-9.01,-9.19,0,*56
1494392429.41,27106,14.0,72580.5,-8.35,-9.01,-9.15,0,*59
1494392430.64,27107,14.0,72586.8,-8.35,-8.93,-9.19,0,*5E
1494392431.87,27108,14.0,72584.5,-8.35,-8.93,-9.05,0,*5C
1494392433.12,27109,14.0,72584.3,-8.35,-8.93,-9.15,0,*5C
1494392434.35,27110,14.0,72582.5,-8.33,-8.89,-9.11,0,*5D
1494392435.58,27111,14.0,72580.0,-8.33,-8.89,-9.11,0,*5C
1494392436.79,27112,14.0,72580.0,-8.33,-8.89,-9.01,0,*5E
1494392438.0,27113,14.0,72586.0,-8.33,-8.85,-9.01,0,*53
1494392439.23,27114,14.0,72586.3,-8.29,-8.89,-9.11,0,*52
1494392440.44,27115,14.0,72586.8,-8.33,-8.89,-9.01,0,*59
1494392441.67,27116,14.0,72580.8,-8.29,-8.85,-9.15,0,*58
1494392442.9,27117,14.0,72580.3,-8.33,-8.89,-9.11,0,*5A
1494392444.13,27118,14.0,72586.5,-8.33,-8.89,-9.11,0,*55
1494392445.36,27119,14.0,72584.0,-8.29,-8.97,-9.11,0,*50
1494392446.59,27120,14.0,72580.3,-8.29,-8.89,-9.11,0,*55
1494392447.82,27121,14.0,72582.5,-8.29,-8.89,-9.11,0,*54
1494392449.06,27122,14.0,72580.0,-8.29,-8.89,-9.11,0,*57
1494392450.29,27123,14.0,72580.3,-8.29,-8.89,-9.11,0,*56
1494392451.5,27124,14.0,72582.8,-8.29,-8.89,-9.01,0,*50
1494392452.73,27125,14.0,72582.0,-8.29,-8.89,-9.11,0,*50
1494392453.98,27126,14.0,72584.5,-8.27,-8.81,-9.05,0,*50
1494392455.21,27127,14.0,72588.3,-8.27,-8.85,-9.05,0,*55
1494392456.43,27128,14.0,72580.3,-8.27,-8.85,-8.93,0,*54
1494392457.66,27129,14.0,72584.3,-8.27,-8.85,-9.05,0,*5B
1494392458.86,27130,14.0,72584.5,-8.25,-8.85,-9.05,0,*51
1494392460.09,27131,14.0,72582.5,-8.27,-8.85,-9.05,0,*52
1494392461.32,27132,14.0,72586.5,-8.27,-8.85,-9.05,0,*51
1494392462.55,27133,14.0,72584.3,-8.27,-8.85,-9.05,0,*50
1494392463.75,27134,14.0,72582.3,-8.25,-8.85,-9.05,0,*55
1494392464.95,27135,14.0,72582.8,-8.25,-8.85,-9.05,0,*54
1494392466.16,27136,14.0,72586.3,-8.25,-8.85,-9.05,0,*57
1494392467.36,27137,14.0,72584.0,-8.25,-8.85,-9.05,0,*56
1494392468.6,27138,13.94,72580.0,-8.23,-8.93,-9.01,0,*5C
1494392469.83,27139,14.0,72582.0,-8.23,-8.89,-9.01,0,*56
1494392471.06,27140,14.0,72578.8,-8.23,-8.75,-9.01,0,*5B
1494392472.3,27141,14.0,72582.3,-8.23,-8.81,-8.93,0,*5B
1494392473.55,27142,14.0,72580.8,-8.23,-8.81,-8.93,0,*58
1494392474.77,27143,14.0,72580.0,-8.23,-8.75,-8.93,0,*52
1494392476.0,27144,14.0,72580.0,-8.21,-8.81,-8.93,0,*5C
1494392477.23,27145,14.0,72580.3,-8.23,-8.89,-8.93,0,*57
1494392478.43,27146,14.0,72576.5,-8.21,-8.89,-8.93,0,*56
1494392479.65,27147,14.0,72576.8,-8.21,-8.81,-8.93,0,*5F
1494392480.86,27148,14.0,72580.3,-8.21,-8.75,-8.89,0,*50
1494392482.06,27149,14.0,72582.8,-8.21,-8.75,-8.93,0,*5A
1494392483.26,27150,13.94,72578.5,-8.21,-8.75,-9.01,0,*58
1494392484.49,27151,14.0,72576.8,-8.21,-8.81,-9.05,0,*56
1494392485.71,27152,14.0,72576.5,-8.21,-8.81,-9.05,0,*55
1494392486.94,27153,14.0,72576.8,-8.19,-8.71,-8.97,0,*5A
1494392488.14,27154,14.0,72576.5,-8.21,-8.75,-9.01,0,*5C
1494392489.36,27155,13.94,72578.5,-8.21,-8.81,-8.93,0,*5C
1494392490.57,27156,14.0,72578.8,-8.21,-8.75,-9.01,0,*5E
1494392491.79,27157,14.0,72582.8,-8.21,-8.81,-9.01,0,*54
1494392493.01,27158,14.0,72580.0,-8.19,-8.75,-8.97,0,*55
1494392494.24,27159,14.0,72578.0,-8.19,-8.71,-8.97,0,*50
1494392495.47,27160,14.0,72580.5,-8.19,-8.75,-9.01,0,*50
1494392496.69,27161,14.0,72578.8,-8.19,-8.75,-8.97,0,*5F
1494392497.89,27162,14.0,72580.0,-8.17,-8.71,-8.97,0,*56
1494392499.1,27163,14.0,72578.3,-8.17,-8.71,-8.89,0,*58
1494392500.3,27164,14.0,72578.5,-8.17,-8.71,-8.89,0,*5F
1494392501.51,27165,14.0,72580.5,-8.17,-8.71,-8.89,0,*5E
1494392502.72,27166,14.0,72578.5,-8.17,-8.71,-8.89,0,*5D
1494392503.92,27167,14.0,72580.0,-8.17,-8.75,-8.89,0,*58
1494392505.12,27168,14.0,72578.5,-8.17,-8.71,-8.89,0,*53
1494392506.36,27169,14.0,72580.8,-8.15,-8.71,-8.85,0,*5C
1494392507.6,27170,13.94,72574.8,-8.15,-8.71,-8.85,0,*54
1494392508.84,27171,14.0,72582.0,-8.15,-8.71,-8.85,0,*55
1494392510.07,27172,14.0,72580.8,-8.15,-8.71,-8.85,0,*56
1494392511.27,27173,14.0,72576.8,-8.13,-8.67,-8.85,0,*56
1494392512.51,27174,14.0,72582.5,-8.15,-8.71,-8.85,0,*50
1494392513.72,27175,14.0,72580.5,-8.13,-8.71,-8.85,0,*57
1494392514.95,27176,14.0,72580.5,-8.15,-8.67,-8.85,0,*55
1494392516.15,27177,14.0,72578.8,-8.13,-8.67,-8.85,0,*52
1494392517.35,27178,14.0,72582.8,-8.13,-8.67,-8.85,0,*5D
1494392518.55,27179,14.0,72580.5,-8.13,-8.67,-8.93,0,*5B
1494392519.74,27180,13.94,72576.3,-8.13,-8.67,-8.93,0,*5D
1494392520.94,27181,14.0,72582.5,-8.13,-8.67,-8.85,0,*5B
1494392522.15,27182,14.0,72582.0,-8.13,-8.71,-8.93,0,*58
1494392523.38,27183,13.94,72580.3,-8.11,-8.63,-8.89,0,*53
1494392524.62,27184,13.94,72576.3,-8.11,-8.63,-8.81,0,*5C
1494392525.84,27185,14.0,72584.3,-8.07,-8.59,-8.75,0,*58
1494392527.07,27186,14.0,72582.8,-8.11,-8.67,-8.89,0,*52
1494392528.3,27187,13.94,72582.0,-8.11,-8.63,-8.89,0,*57
1494392529.52,27188,14.0,72580.5,-8.07,-8.59,-8.75,0,*55
1494392530.76,27189,13.94,72580.5,-8.11,-8.63,-8.81,0,*51
1494392531.98,27190,13.94,72580.5,-8.07,-8.59,-8.75,0,*5C
1494392533.2,27191,13.94,72580.8,-8.07,-8.59,-8.75,0,*5D
1494392534.42,27192,14.0,72580.3,-8.07,-8.63,-8.75,0,*57
1494392535.67,27193,14.0,72582.3,-8.11,-8.67,-8.81,0,*5E
1494392536.89,27194,14.0,72582.8,-8.07,-8.63,-8.75,0,*51
1494392538.11,27195,13.94,72580.3,-8.07,-8.63,-8.71,0,*54
1494392539.33,27196,13.94,72580.0,-8.07,-8.63,-8.75,0,*53
1494392540.56,27197,14.0,72582.0,-8.07,-8.63,-8.75,0,*52
1494392541.75,27198,13.94,72582.8,-8.05,-8.59,-8.75,0,*56
1494392542.94,27199,14.0,72580.3,-8.05,-8.59,-8.75,0,*57
1494392544.14,27200,13.94,72580.5,-8.05,-8.63,-8.75,0,*5D
1494392545.33,27201,13.94,72578.8,-8.05,-8.59,-8.75,0,*55
1494392546.52,27202,14.0,72582.3,-8.05,-8.59,-8.71,0,*52
1494392547.75,27203,13.94,72582.5,-8.03,-8.63,-8.75,0,*58
1494392548.97,27204,13.94,72582.0,-8.03,-8.63,-8.75,0,*5F
1494392550.19,27205,13.94,72580.3,-8.03,-8.63,-8.75,0,*5E
1494392551.41,27206,13.94,72580.3,-8.03,-8.63,-8.75,0,*5D
1494392552.63,27207,14.0,72584.8,-8.03,-8.59,-8.75,0,*55
1494392553.86,27208,13.94,72580.8,-8.03,-8.59,-8.85,0,*55
1494392555.09,27209,13.94,72580.8,-8.03,-8.63,-8.85,0,*5D
1494392556.31,27210,13.94,72580.8,-8.03,-8.59,-8.71,0,*57
1494392557.53,27211,13.94,72580.5,-8.03,-8.63,-8.71,0,*5F
1494392558.75,27212,13.94,72584.8,-8.03,-8.59,-8.75,0,*51
1494392559.98,27213,14.0,72586.3,-7.99,-8.55,-8.71,0,*54
1494392561.17,27214,13.94,72584.5,-8.01,-8.55,-8.67,0,*5A
1494392562.36,27215,13.94,72580.8,-8.01,-8.55,-8.67,0,*5B
1494392563.56,27216,13.94,72586.3,-8.01,-8.55,-8.71,0,*5F
1494392564.79,27217,13.94,72584.5,-7.99,-8.59,-8.71,0,*5C
1494392565.99,27218,13.94,72582.5,-8.01,-8.55,-8.71,0,*51
1494392567.21,27219,13.94,72582.8,-7.99,-8.59,-8.71,0,*52
1494392568.44,27220,13.94,72582.0,-7.99,-8.55,-8.71,0,*54
1494392569.66,27221,13.94,72584.5,-7.99,-8.55,-8.71,0,*55
1494392570.86,27222,13.94,72586.8,-8.01,-8.55,-8.67,0,*5F
1494392572.08,27223,13.94,72584.0,-7.99,-8.55,-8.71,0,*57
1494392573.31,27224,13.94,72582.8,-7.99,-8.55,-8.71,0,*50
1494392574.53,27225,13.94,72582.5,-7.99,-8.55,-8.71,0,*51
1494392575.76,27226,13.94,72582.3,-7.99,-8.55,-8.67,0,*55
1494392576.98,27227,13.94,72580.0,-7.99,-8.55,-8.71,0,*53
1494392578.17,27228,13.94,72584.8,-7.97,-8.41,-8.67,0,*50
1494392579.39,27229,13.94,72582.5,-7.97,-8.51,-8.63,0,*54
1494392580.61,27230,13.94,72584.0,-7.95,-8.45,-8.63,0,*5B
1494392581.83,27231,13.94,72580.0,-7.97,-8.51,-8.63,0,*5D
1494392583.05,27232,13.94,72584.5,-7.97,-8.51,-8.67,0,*5A
1494392584.27,27233,13.94,72582.3,-7.97,-8.51,-8.63,0,*5F
1494392585.49,27234,13.94,72580.5,-7.95,-8.45,-8.63,0,*5F
1494392586.68,27235,13.94,72582.0,-7.97,-8.55,-8.67,0,*59
1494392587.92,27236,13.94,72582.8,-7.95,-8.51,-8.63,0,*58
1494392589.14,27237,13.94,72580.0,-7.95,-8.45,-8.59,0,*55
1494392590.36,27238,13.94,72582.3,-7.93,-8.51,-8.63,0,*50
1494392591.58,27239,13.94,72582.3,-7.91,-8.41,-8.59,0,*5B
1494392592.77,27240,13.94,72580.8,-7.93,-8.45,-8.63,0,*5A
1494392593.96,27241,13.94,72582.8,-7.93,-8.45,-8.59,0,*52
1494392595.15,27242,13.94,72580.5,-7.93,-8.45,-8.63,0,*58
1494392596.37,27243,13.94,72582.3,-7.93,-8.51,-8.63,0,*5C
1494392597.59,27244,13.94,72582.0,-7.91,-8.41,-8.59,0,*51
1494392598.81,27245,13.94,72582.3,-7.91,-8.41,-8.59,0,*50
1494392600.03,27246,13.94,72580.5,-7.91,-8.41,-8.55,0,*5F
1494392601.25,27247,13.94,72582.5,-7.91,-8.41,-8.59,0,*52
1494392602.47,27248,13.94,72580.3,-7.91,-8.41,-8.59,0,*5D
1494392603.68,27249,13.94,72582.5,-7.91,-8.45,-8.55,0,*54
1494392604.9,27250,13.94,72582.5,-7.91,-8.45,-8.59,0,*50
1494392606.12,27251,13.94,72580.8,-7.91,-8.41,-8.67,0,*58
1494392607.34,27252,13.94,72580.3,-7.91,-8.41,-8.55,0,*5A
1494392608.53,27253,13.94,72586.8,-7.89,-8.45,-8.55,0,*56
1494392609.72,27254,13.94,72582.8,-7.89,-8.41,-8.59,0,*59
1494392610.92,27255,13.94,72582.5,-7.89,-8.41,-8.59,0,*58
1494392612.11,27256,13.94,72582.3,-7.89,-8.45,-8.59,0,*5F
1494392613.31,27257,13.94,72582.8,-7.89,-8.45,-8.59,0,*5E
1494392614.53,27258,13.94,72582.0,-7.85,-8.37,-8.55,0,*54
1494392615.72,27259,13.94,72580.5,-7.89,-8.41,-8.55,0,*58
1494392616.91,27260,13.94,72580.3,-7.89,-8.41,-8.59,0,*5E
1494392618.1,27261,13.94,72582.5,-7.89,-8.41,-8.59,0,*5F
1494392619.32,27262,13.94,72584.3,-7.85,-8.41,-8.55,0,*5C
1494392620.54,27263,13.94,72580.3,-7.85,-8.37,-8.55,0,*5C
1494392621.8,27264,13.94,72582.3,-7.85,-8.37,-8.51,0,*5F
1494392623.02,27265,13.94,72580.0,-7.85,-8.37,-8.63,0,*5F
1494392624.24,27266,13.94,72582.3,-7.85,-8.41,-8.55,0,*58
1494392625.49,27267,13.94,72584.3,-7.85,-8.37,-8.51,0,*5C
1494392626.74,27268,13.94,72584.5,-7.81,-8.37,-8.51,0,*57
1494392627.94,27269,13.94,72582.8,-7.83,-8.41,-8.55,0,*51
1494392629.14,27270,13.94,72580.0,-7.83,-8.41,-8.63,0,*5C
1494392630.34,27271,13.94,72580.8,-7.83,-8.41,-8.55,0,*58
1494392631.54,27272,13.94,72582.8,-7.83,-8.37,-8.55,0,*5A
1494392632.74,27273,13.94,72582.0,-7.83,-8.41,-8.55,0,*5A
1494392633.94,27274,13.94,72584.0,-7.83,-8.37,-8.55,0,*5C
1494392635.16,27275,13.94,72582.8,-7.81,-8.33,-8.59,0,*57
1494392636.36,27276,13.94,72586.8,-7.83,-8.37,-8.63,0,*5B
1494392637.58,27277,13.94,72580.8,-7.81,-8.37,-8.59,0,*51
1494392638.8,27278,13.94,72582.8,-7.81,-8.37,-8.59,0,*5E
1494392640.05,27279,13.94,72580.8,-7.81,-8.33,-8.51,0,*53
1494392641.28,27280,13.94,72586.3,-7.81,-8.37,-8.45,0,*54
1494392642.49,27281,13.94,72580.8,-7.81,-8.33,-8.59,0,*5C
1494392643.71,27282,13.94,72584.3,-7.81,-8.37,-8.59,0,*5B
1494392644.94,27283,13.94,72580.8,-7.81,-8.37,-8.59,0,*5A
1494392646.16,27284,13.94,72580.8,-7.81,-8.33,-8.45,0,*54
1494392647.41,27285,13.94,72586.0,-7.81,-8.37,-8.51,0,*54
1494392648.6,27286,13.94,72582.3,-7.79,-8.33,-8.59,0,*5C
1494392649.82,27287,13.94,72584.5,-7.77,-8.33,-8.45,0,*5E
1494392651.01,27288,13.94,72586.3,-7.79,-8.37,-8.59,0,*56
1494392652.24,27289,13.94,72580.3,-7.79,-8.37,-8.51,0,*5F
1494392653.46,27290,13.94,72586.5,-7.77,-8.29,-8.41,0,*57
1494392654.67,27291,13.94,72582.3,-7.77,-8.29,-8.55,0,*53
1494392655.88,27292,13.94,72582.5,-7.77,-8.29,-8.55,0,*50
1494392657.1,27293,13.94,72586.0,-7.77,-8.29,-8.45,0,*50
1494392658.32,27294,13.94,72584.5,-7.79,-8.33,-8.51,0,*57
1494392659.54,27295,13.94,72586.8,-7.77,-8.21,-8.41,0,*5A
1494392660.75,27296,13.94,72582.8,-7.77,-8.29,-8.41,0,*51
1494392661.96,27297,13.94,72586.0,-7.77,-8.33,-8.55,0,*5E
1494392663.15,27298,13.94,72584.3,-7.75,-8.29,-8.55,0,*58
1494392664.35,27299,13.94,72584.0,-7.75,-8.29,-8.45,0,*58
1494392665.57,27300,13.94,72584.8,-7.73,-8.29,-8.41,0,*5B
1494392666.77,27301,13.94,72586.3,-7.75,-8.33,-8.45,0,*53
1494392667.96,27302,13.94,72586.3,-7.75,-8.29,-8.45,0,*5B
1494392669.16,27303,13.94,72582.8,-7.75,-8.29,-8.45,0,*5A
1494392670.39,27304,13.94,72584.8,-7.73,-8.29,-8.37,0,*5E
1494392671.61,27305,13.94,72584.5,-7.73,-8.25,-8.41,0,*52
1494392672.8,27306,13.88,72580.0,-7.75,-8.33,-8.45,0,*54
1494392674.02,27307,13.94,72584.5,-7.73,-8.29,-8.41,0,*5C
1494392675.24,27308,13.94,72584.8,-7.73,-8.29,-8.41,0,*53
1494392676.44,27309,13.94,72586.8,-7.75,-8.29,-8.45,0,*50
1494392677.66,27310,13.88,72586.0,-7.73,-8.29,-8.41,0,*5A
1494392678.85,27311,13.94,72584.5,-7.71,-8.29,-8.41,0,*59
1494392680.04,27312,13.88,72582.8,-7.71,-8.25,-8.41,0,*56
1494392681.24,27313,13.94,72586.3,-7.71,-8.25,-8.41,0,*57
1494392682.43,27314,13.94,72584.8,-7.71,-8.25,-8.41,0,*50
1494392683.66,27315,13.94,72584.8,-7.69,-8.21,-8.37,0,*5D
1494392684.85,27316,13.88,72582.5,-7.71,-8.25,-8.41,0,*52
1494392686.05,27317,13.88,72582.5,-7.71,-8.25,-8.41,0,*53
1494392687.27,27318,13.94,72584.8,-7.71,-8.25,-8.51,0,*5D
1494392688.46,27319,13.94,72586.5,-7.71,-8.25,-8.41,0,*5D
1494392689.67,27320,13.94,72584.8,-7.69,-8.21,-8.33,0,*5F
1494392690.9,27321,13.88,72586.0,-7.69,-8.25,-8.37,0,*5E
1494392692.09,27322,13.88,72580.8,-7.71,-8.29,-8.41,0,*59
1494392693.32,27323,13.94,72586.5,-7.69,-8.25,-8.45,0,*59
1494392694.54,27324,13.94,72584.8,-7.69,-8.21,-8.45,0,*5A
1494392695.76,27325,13.94,72586.8,-7.69,-8.21,-8.45,0,*5B
1494392696.98,27326,13.88,72582.5,-7.69,-8.21,-8.37,0,*5D
1494392698.2,27327,13.94,72586.5,-7.69,-8.25,-8.33,0,*5C
1494392699.43,27328,13.88,72586.5,-7.69,-8.21,-8.37,0,*53
1494392700.65,27329,13.94,72588.0,-7.69,-8.21,-8.37,0,*52
1494392701.87,27330,13.94,72584.5,-7.69,-8.25,-8.45,0,*5B
1494392703.1,27331,13.88,72584.0,-7.69,-8.21,-8.45,0,*5E
1494392704.32,27332,13.88,72586.0,-7.69,-8.21,-8.37,0,*58
1494392705.52,27333,13.94,72588.5,-7.67,-8.21,-8.37,0,*57
1494392706.72,27334,13.88,72584.0,-7.67,-8.21,-8.37,0,*50
1494392707.91,27335,13.94,72588.0,-7.67,-8.21,-8.33,0,*55
1494392709.13,27336,13.94,72588.3,-7.65,-8.25,-8.33,0,*50
1494392710.32,27337,13.88,72586.8,-7.67,-8.17,-8.33,0,*52
1494392711.52,27338,13.88,72584.8,-7.67,-8.21,-8.37,0,*5C
1494392712.74,27339,13.88,72586.5,-7.65,-8.17,-8.41,0,*5B
1494392713.96,27340,13.88,72584.3,-7.65,-8.17,-8.41,0,*55
1494392715.16,27341,13.88,72584.3,-7.67,-8.17,-8.41,0,*56
1494392716.36,27342,13.88,72584.5,-7.67,-8.25,-8.37,0,*55
1494392717.58,27343,13.88,72586.3,-7.65,-8.17,-8.45,0,*52
1494392718.8,27344,13.88,72584.5,-7.61,-8.21,-8.33,0,*55
1494392720.01,27345,13.88,72586.5,-7.61,-8.21,-8.33,0,*54
1494392721.22,27346,13.88,72584.3,-7.61,-8.21,-8.29,0,*5C
1494392722.44,27347,13.88,72586.8,-7.65,-8.21,-8.41,0,*57
1494392723.65,27348,13.88,72586.5,-7.61,-8.17,-8.41,0,*59
1494392724.87,27349,13.88,72582.8,-7.61,-8.21,-8.33,0,*58
1494392726.08,27350,13.88,72584.8,-7.61,-8.17,-8.33,0,*55
1494392727.3,27351,13.88,72584.0,-7.59,-8.11,-8.29,0,*52
1494392728.51,27352,13.94,72590.0,-7.59,-8.17,-8.37,0,*58
1494392729.7,27353,13.88,72584.8,-7.59,-8.17,-8.29,0,*56
1494392730.93,27354,13.88,72582.0,-7.59,-8.11,-8.37,0,*58
1494392732.15,27355,13.88,72586.0,-7.61,-8.17,-8.41,0,*55
1494392733.37,27356,13.88,72586.3,-7.61,-8.21,-8.41,0,*53
1494392734.58,27357,13.88,72586.8,-7.61,-8.21,-8.41,0,*52
1494392735.78,27358,13.88,72584.0,-7.59,-8.17,-8.37,0,*52
1494392737.01,27359,13.88,72588.5,-7.59,-8.11,-8.29,0,*5A
1494392738.22,27360,13.88,72586.3,-7.61,-8.21,-8.33,0,*53
1494392739.42,27361,13.88,72584.5,-7.59,-8.17,-8.37,0,*58
1494392740.63,27362,13.88,72584.0,-7.59,-8.17,-8.37,0,*5B
1494392741.85,27363,13.88,72586.5,-7.57,-8.17,-8.37,0,*54
1494392743.08,27364,13.88,72586.5,-7.57,-8.17,-8.37,0,*53
1494392744.33,27365,13.88,72584.0,-7.55,-8.11,-8.25,0,*55
1494392745.58,27366,13.88,72588.0,-7.57,-8.11,-8.37,0,*57
1494392746.8,27367,13.88,72586.5,-7.57,-8.17,-8.29,0,*5F
1494392748.03,27368,13.88,72584.3,-7.57,-8.17,-8.29,0,*50
1494392749.27,27369,13.88,72588.3,-7.55,-8.11,-8.33,0,*5E
1494392750.49,27370,13.88,72584.3,-7.55,-8.21,-8.33,0,*55
1494392751.74,27371,13.88,72586.5,-7.55,-8.11,-8.33,0,*57
1494392752.96,27372,13.88,72586.8,-7.53,-8.11,-8.33,0,*52
1494392754.22,27373,13.88,72588.8,-7.55,-8.11,-8.37,0,*51
1494392755.47,27374,13.88,72586.0,-7.55,-8.11,-8.37,0,*56
1494392756.69,27375,13.88,72584.8,-7.57,-8.17,-8.29,0,*5C
1494392757.92,27376,13.88,72584.5,-7.53,-8.07,-8.33,0,*51
1494392759.16,27377,13.88,72586.0,-7.55,-8.11,-8.33,0,*51
1494392760.38,27378,13.88,72584.8,-7.53,-8.11,-8.33,0,*58
1494392761.6,27379,13.88,72584.3,-7.53,-8.11,-8.33,0,*59
1494392762.83,27380,13.88,72588.0,-7.53,-8.11,-8.25,0,*58
1494392764.05,27381,13.88,72584.8,-7.53,-8.07,-8.33,0,*59
1494392765.27,27382,13.88,72584.5,-7.53,-8.11,-8.33,0,*5D
1494392766.52,27383,13.88,72588.5,-7.51,-8.07,-8.29,0,*52
1494392767.78,27384,13.88,72586.8,-7.51,-8.07,-8.29,0,*55
1494392769.03,27385,13.88,72584.3,-7.51,-8.07,-8.33,0,*5F
1494392770.25,27386,13.88,72582.8,-7.53,-8.11,-8.33,0,*59
1494392771.5,27387,13.88,72584.5,-7.51,-8.03,-8.29,0,*52
1494392772.75,27388,13.88,72584.3,-7.51,-8.07,-8.29,0,*59
1494392774.01,27389,13.88,72586.5,-7.51,-8.07,-8.21,0,*50
1494392775.27,27390,13.88,72582.3,-7.51,-8.07,-8.29,0,*50
1494392776.52,27391,13.88,72588.5,-7.51,-8.07,-8.29,0,*51
1494392777.77,27392,13.88,72584.0,-7.51,-8.03,-8.29,0,*56
1494392779.02,27393,13.88,72586.3,-7.51,-8.03,-8.29,0,*57
1494392780.26,27394,13.88,72588.5,-7.47,-8.03,-8.29,0,*57
1494392781.48,27395,13.88,72584.0,-7.49,-8.03,-8.29,0,*58
1494392782.71,27396,13.88,72584.3,-7.49,-8.07,-8.33,0,*54
1494392783.93,27397,13.88,72584.8,-7.49,-8.07,-8.29,0,*5E
1494392785.16,27398,13.88,72584.0,-7.49,-8.03,-8.29,0,*55
1494392786.4,27399,13.88,72584.8,-7.47,-8.03,-8.25,0,*56
1494392787.63,27400,13.88,72584.3,-7.49,-8.03,-8.21,0,*5B
1494392788.87,27401,13.88,72584.5,-7.47,-7.99,-8.25,0,*5C
1494392790.1,27402,13.88,72584.3,-7.49,-8.07,-8.29,0,*55
1494392791.32,27403,13.88,72586.8,-7.49,-8.03,-8.29,0,*50
1494392792.57,27404,13.88,72586.0,-7.47,-7.99,-8.25,0,*59
1494392793.79,27405,13.88,72584.0,-7.45,-8.03,-8.25,0,*56
1494392795.01,27406,13.88,72584.3,-7.45,-8.03,-8.25,0,*55
1494392796.22,27407,13.88,72584.5,-7.45,-8.03,-8.25,0,*54
1494392797.44,27408,13.88,72584.0,-7.45,-7.99,-8.29,0,*5B
1494392798.66,27409,13.88,72580.8,-7.45,-8.03,-8.25,0,*5A
1494392799.88,27410,13.88,72586.3,-7.45,-7.99,-8.17,0,*5F
1494392801.1,27411,13.88,72584.8,-7.45,-8.03,-8.25,0,*53
1494392802.35,27412,13.88,72584.5,-7.43,-7.99,-8.25,0,*5A
1494392803.6,27413,13.88,72586.8,-7.43,-7.99,-8.21,0,*5F
1494392804.87,27414,13.88,72584.8,-7.43,-7.99,-8.11,0,*5B
1494392806.15,27415,13.88,72584.0,-7.43,-7.99,-8.11,0,*5A
1494392807.39,27416,13.88,72584.5,-7.43,-7.99,-8.25,0,*5E
1494392808.61,27417,13.88,72584.8,-7.45,-8.03,-8.25,0,*55
1494392809.86,27418,13.88,72584.8,-7.43,-7.99,-8.21,0,*54
1494392811.11,27419,13.88,72582.5,-7.43,-7.99,-8.21,0,*55
1494392812.37,27420,13.88,72584.8,-7.43,-8.07,-8.21,0,*57
1494392813.64,27421,13.88,72586.5,-7.43,-7.99,-8.11,0,*5D
1494392814.89,27422,13.88,72584.5,-7.43,-7.99,-8.21,0,*5D
1494392816.14,27423,13.88,72586.5,-7.43,-7.99,-8.25,0,*58
1494392817.39,27424,13.88,72584.5,-7.43,-7.99,-8.21,0,*5B
1494392818.64,27425,13.88,72582.8,-7.39,-7.95,-8.17,0,*5E
1494392819.89,27426,13.88,72584.5,-7.39,-7.95,-8.21,0,*58
1494392821.14,27427,13.88,72586.0,-7.39,-7.95,-8.17,0,*5C
1494392822.38,27428,13.88,72584.3,-7.39,-7.95,-8.17,0,*53
1494392823.63,27429,13.81,72580.5,-7.39,-7.95,-8.17,0,*52
1494392824.85,27430,13.81,72584.0,-7.37,-7.91,-8.17,0,*50
1494392826.07,27431,13.88,72584.0,-7.37,-7.95,-8.17,0,*55
1494392827.29,27432,13.88,72582.8,-7.37,-7.95,-8.17,0,*56
1494392828.51,27433,13.88,72584.8,-7.37,-7.95,-8.17,0,*57
1494392829.73,27434,13.81,72580.8,-7.37,-7.95,-8.17,0,*50
1494392830.95,27435,13.81,72582.0,-7.37,-7.95,-8.17,0,*51
1494392832.17,27436,13.81,72580.5,-7.37,-7.95,-8.17,0,*52
1494392833.45,27437,13.81,72584.0,-7.35,-7.91,-8.07,0,*54
1494392834.7,27438,13.88,72586.8,-7.35,-7.91,-8.21,0,*5F
1494392835.94,27439,13.81,72586.0,-7.35,-7.95,-8.17,0,*5F
1494392837.19,27440,13.88,72584.0,-7.35,-7.91,-8.17,0,*55
1494392838.41,27441,13.88,72584.8,-7.33,-7.87,-8.11,0,*53
1494392839.66,27442,13.88,72586.0,-7.35,-7.95,-8.17,0,*53
1494392840.91,27443,13.81,72582.5,-7.33,-7.91,-8.11,0,*56
1494392842.15,27444,13.88,72584.8,-7.33,-7.91,-8.11,0,*51
1494392843.37,27445,13.88,72586.8,-7.33,-7.91,-8.17,0,*56
1494392844.62,27446,13.81,72582.0,-7.33,-7.91,-8.11,0,*53
1494392845.87,27447,13.81,72582.8,-7.35,-7.95,-8.21,0,*53
1494392847.08,27448,13.81,72582.8,-7.33,-7.87,-8.03,0,*59
1494392848.33,27449,13.81,72584.8,-7.33,-7.91,-8.03,0,*5F
1494392849.57,27450,13.88,72586.5,-7.33,-7.91,-8.03,0,*57
1494392850.81,27451,13.81,72584.3,-7.33,-7.91,-8.11,0,*55
1494392852.06,27452,13.81,72580.8,-7.33,-7.91,-8.11,0,*56
1494392853.33,27453,13.81,72580.8,-7.31,-7.91,-8.11,0,*55
1494392854.6,27454,13.88,72582.8,-7.31,-7.91,-8.11,0,*52
1494392855.87,27455,13.81,72582.0,-7.31,-7.91,-8.11,0,*53
1494392857.13,27456,13.88,72584.8,-7.31,-7.91,-8.11,0,*50
1494392858.41,27457,13.81,72580.5,-7.31,-7.91,-8.07,0,*56
1494392859.63,27458,13.81,72582.5,-7.29,-7.87,-7.99,0,*5F
1494392860.89,27459,13.88,72582.8,-7.31,-7.91,-8.11,0,*5F
1494392862.16,27460,13.81,72582.0,-7.31,-7.91,-8.11,0,*55
1494392863.39,27461,13.81,72582.0,-7.29,-7.87,-8.07,0,*5D
1494392864.61,27462,13.88,72584.8,-7.29,-7.87,-8.07,0,*5E
1494392865.83,27463,13.81,72580.0,-7.29,-7.87,-8.07,0,*5F
1494392867.1,27464,13.81,72582.8,-7.31,-7.91,-8.11,0,*51
1494392868.35,27465,13.81,72582.0,-7.27,-7.87,-8.07,0,*57
1494392869.58,27466,13.81,72582.3,-7.29,-7.83,-8.07,0,*5E
1494392870.79,27467,13.81,72582.3,-7.29,-7.87,-8.11,0,*5C
1494392872.05,27468,13.81,72582.5,-7.27,-7.83,-8.07,0,*5E
1494392873.29,27469,13.81,72580.3,-7.27,-7.83,-8.03,0,*5B
1494392874.57,27470,13.81,72582.0,-7.27,-7.77,-8.07,0,*5C
1494392875.81,27471,13.81,72582.5,-7.27,-7.83,-8.03,0,*52
1494392877.08,27472,13.81,72580.3,-7.27,-7.77,-8.03,0,*5A
1494392878.32,27473,13.81,72582.8,-7.27,-7.83,-8.03,0,*50
1494392879.54,27474,13.81,72578.5,-7.25,-7.83,-8.03,0,*55
1494392880.79,27475,13.81,72584.0,-7.27,-7.83,-7.95,0,*56
1494392882.02,27476,13.81,72580.5,-7.25,-7.83,-8.07,0,*53
1494392883.25,27477,13.88,72584.3,-7.25,-7.83,-8.07,0,*52
1494392884.46,27478,13.81,72580.5,-7.25,-7.83,-8.03,0,*59
1494392885.68,27479,13.81,72582.0,-7.25,-7.83,-8.03,0,*58
1494392886.93,27480,13.81,72582.5,-7.25,-7.77,-8.03,0,*55
1494392888.15,27481,13.81,72582.8,-7.25,-7.83,-7.95,0,*5F
1494392889.37,27482,13.81,72584.8,-7.25,-7.83,-8.03,0,*5C
1494392890.62,27483,13.81,72582.5,-7.23,-7.73,-8.03,0,*54
1494392891.86,27484,13.81,72580.5,-7.23,-7.77,-7.99,0,*5B
1494392893.13,27485,13.81,72580.5,-7.21,-7.77,-7.99,0,*58
1494392894.37,27486,13.81,72578.3,-7.23,-7.77,-7.99,0,*59
1494392895.64,27487,13.81,72580.0,-7.21,-7.77,-7.99,0,*5A
1494392896.92,27488,13.81,72582.0,-7.21,-7.73,-7.91,0,*59
1494392898.16,27489,13.81,72578.8,-7.23,-7.77,-7.91,0,*5E
1494392899.42,27490,13.81,72578.3,-7.23,-7.73,-7.99,0,*5A
1494392900.67,27491,13.81,72582.3,-7.23,-7.73,-7.99,0,*5B
1494392901.94,27492,13.81,72582.5,-7.21,-7.73,-7.99,0,*5A
1494392903.21,27493,13.81,72580.8,-7.21,-7.77,-7.99,0,*5F
1494392904.48,27494,13.81,72582.5,-7.21,-7.77,-8.03,0,*54
1494392905.72,27495,13.81,72580.3,-7.21,-7.87,-7.99,0,*56
1494392906.97,27496,13.81,72582.3,-7.17,-7.69,-7.87,0,*5F
1494392908.25,27497,13.81,72582.0,-7.17,-7.73,-7.95,0,*56